CW3001 Weather Reports


Display with metric or nautical units.
time (UTC)temp
F
wind
direction
speed
MPH
gust
MPH
rain 1hr
in
rain 24hr
in
rain mn
in
humidity
%
barometer
mb
20260509021404 44 30 0.0 0.0 0.00 0.00 0.00 87 1018.3
20260509020903 44 30 0.0 0.0 0.00 0.00 0.00 87 1018.2
20260509020406 44 30 0.0 0.0 0.00 0.00 0.00 87 1018.3
20260509015902 44 30 0.0 0.0 0.00 0.00 0.00 87 1018.3
20260509015401 45 30 0.0 0.0 0.00 0.00 0.00 87 1018.3
20260509015153 45 30 0.0 0.0 0.00 0.00 0.00 87 1018.3
20260509014401 45 28 0.0 0.0 0.00 0.00 0.00 87 1018.4
20260509013902 45 28 0.0 0.0 0.00 0.00 0.00 86 1018.4
20260509013650 45 28 0.0 0.0 0.00 0.00 0.00 86 1018.5
20260509012902 45 28 0.0 0.0 0.00 0.00 0.00 87 1018.5
20260509012402 45 28 0.0 0.0 0.00 0.00 0.00 86 1018.5
20260509011904 45 28 0.0 0.0 0.00 0.00 0.00 86 1018.5
20260509011402 45 28 0.0 0.0 0.00 0.00 0.00 86 1018.5
20260509010905 45 28 0.0 0.0 0.00 0.00 0.00 85 1018.5
20260509010403 46 28 0.0 0.0 0.00 0.00 0.00 85 1018.5
20260509005903 46 27 0.0 0.0 0.00 0.00 0.00 85 1018.6
20260509005401 46 25 0.0 0.0 0.00 0.00 0.00 85 1018.6
20260509004902 46 25 0.0 0.0 0.00 0.00 0.00 85 1018.6
20260509004406 46 25 0.0 0.0 0.00 0.00 0.00 85 1018.5
20260509003913 46 25 0.0 0.0 0.00 0.00 0.00 86 1018.4
20260509003402 46 27 0.0 0.0 0.00 0.00 0.00 85 1018.6
20260509002902 46 47 0.0 0.0 0.00 0.00 0.00 85 1018.6
20260509002507 46 48 0.0 0.0 0.00 0.00 0.00 85 1018.6
20260509002446 46 48 0.0 0.0 0.00 0.00 0.00 85 1018.6
20260509001403 46 48 0.0 0.0 0.00 0.00 0.00 83 1018.6
20260509000902 47 48 0.0 0.0 0.00 0.00 0.00 83 1018.6
20260509000404 47 48 0.0 0.0 0.00 0.00 0.00 84 1018.5
20260508235903 47 48 0.0 0.0 0.00 0.00 0.00 84 1018.5
20260508235403 47 48 0.0 0.0 0.00 0.00 0.00 84 1018.5
20260508234904 47 48 0.0 0.0 0.00 0.00 0.00 84 1018.5
20260508234404 47 48 0.0 0.0 0.00 0.00 0.00 83 1018.6
20260508233902 47 48 0.0 0.0 0.00 0.00 0.00 82 1018.6
20260508233653 47 48 0.0 0.0 0.00 0.00 0.00 81 1018.7
20260508232914 47 48 0.0 0.0 0.00 0.00 0.00 81 1018.7
20260508232403 48 48 0.0 0.0 0.00 0.00 0.00 81 1018.5
20260508231903 48 48 0.0 0.0 0.00 0.00 0.00 81 1018.5
20260508231716 48 48 0.0 0.0 0.00 0.00 0.00 82 1018.6
20260508230903 48 48 0.0 0.0 0.00 0.00 0.00 81 1018.5
20260508230402 48 48 0.0 0.0 0.00 0.00 0.00 81 1018.5
20260508225903 49 48 0.0 0.0 0.00 0.00 0.00 80 1018.5
20260508225404 49 48 0.0 0.0 0.00 0.00 0.00 78 1018.5
20260508224903 49 48 0.0 0.0 0.00 0.00 0.00 79 1018.5
20260508224402 49 48 0.0 0.0 0.00 0.00 0.00 78 1018.6
20260508223902 49 48 0.0 0.0 0.00 0.00 0.00 78 1018.6
20260508223404 50 48 0.0 0.0 0.00 0.00 0.00 78 1018.7
20260508222902 50 48 0.0 0.0 0.00 0.00 0.00 78 1018.6
20260508222402 50 48 0.0 0.0 0.00 0.00 0.00 77 1018.6
20260508221903 51 48 0.0 0.0 0.00 0.00 0.00 73 1018.6
20260508221702 51 48 0.0 0.0 0.00 0.00 0.00 73 1018.5
20260508220902 51 48 0.0 3.0 0.00 0.00 0.00 73 1018.5
20260508220401 52 48 0.0 4.0 0.00 0.00 0.00 73 1018.5
20260508220200 52 47 2.0 4.0 0.00 0.00 0.00 73 1018.5
20260508215403 52 45 2.0 3.0 0.00 0.00 0.00 73 1018.4
20260508215209 52 41 2.0 3.0 0.00 0.00 0.00 73 1018.5
20260508214403 52 41 1.0 3.0 0.00 0.00 0.00 74 1018.5
20260508213903 52 39 2.0 3.0 0.00 0.00 0.00 74 1018.5
20260508213402 52 39 2.0 3.0 0.00 0.00 0.00 75 1018.6
20260508212903 52 41 2.0 3.0 0.00 0.00 0.00 76 1018.5
20260508212402 52 45 2.0 4.0 0.00 0.00 0.00 76 1018.4
20260508212148 52 44 3.0 4.0 0.00 0.00 0.00 77 1018.4
20260508211402 52 61 2.0 4.0 0.00 0.00 0.00 77 1018.4
20260508211005 53 55 0.0 0.0 0.00 0.00 0.00 75 1018.4
20260508210946 52 61 3.0 4.0 0.00 0.00 0.00 76 1018.4
20260508205902 53 55 0.0 0.0 0.00 0.00 0.00 75 1018.4
20260508205402 53 56 0.0 0.0 0.00 0.00 0.00 74 1018.3
20260508204903 54 59 0.0 0.0 0.00 0.00 0.00 73 1018.3
20260508204402 54 59 0.0 0.0 0.00 0.00 0.00 73 1018.3
20260508203917 54 59 0.0 0.0 0.00 0.00 0.00 71 1018.4
20260508203412 55 59 0.0 0.0 0.00 0.00 0.00 70 1018.4
20260508202902 55 52 0.0 0.0 0.00 0.00 0.00 70 1018.4
20260508202402 55 52 0.0 4.0 0.00 0.00 0.00 69 1018.4
20260508201902 56 52 0.0 4.0 0.00 0.00 0.00 69 1018.3
20260508201404 56 55 2.0 4.0 0.00 0.00 0.00 68 1018.3
20260508200902 56 55 2.0 4.0 0.00 0.00 0.00 68 1018.2
20260508200402 56 51 3.0 4.0 0.00 0.00 0.00 68 1018.3
20260508195903 57 49 2.0 4.0 0.00 0.00 0.00 67 1018.2
20260508195402 57 49 2.0 4.0 0.00 0.00 0.00 66 1018.2
20260508194903 58 47 3.0 4.0 0.00 0.00 0.00 66 1018.2
20260508194404 58 51 2.0 4.0 0.00 0.00 0.00 64 1018.1
20260508193919 58 51 2.0 4.0 0.00 0.00 0.00 64 1018.1
20260508193402 59 55 2.0 3.0 0.00 0.00 0.00 63 1018.1
20260508192902 59 55 1.0 5.0 0.00 0.00 0.00 62 1018.1
20260508192405 59 54 2.0 5.0 0.00 0.00 0.00 60 1018.0
20260508191902 60 61 3.0 5.0 0.00 0.00 0.00 59 1017.9
20260508191403 60 48 3.0 5.0 0.00 0.00 0.00 58 1017.9
20260508190902 60 48 2.0 5.0 0.00 0.00 0.00 58 1017.8
20260508190403 60 51 2.0 5.0 0.00 0.00 0.00 57 1017.7
20260508190145 61 59 3.0 6.0 0.00 0.00 0.00 57 1017.7
20260508185648 61 59 4.0 7.0 0.00 0.00 0.00 55 1017.5
20260508184915 61 49 4.0 7.0 0.00 0.00 0.00 56 1017.5
20260508184402 62 54 3.0 9.0 0.00 0.00 0.00 55 1017.4
20260508183902 62 39 6.0 9.0 0.00 0.00 0.00 54 1017.4
20260508183403 62 62 4.0 6.0 0.00 0.00 0.00 54 1017.4
20260508182905 62 52 2.0 7.0 0.00 0.00 0.00 54 1017.4
20260508182417 62 82 3.0 7.0 0.00 0.00 0.00 54 1017.3
20260508182204 62 66 2.0 6.0 0.00 0.00 0.00 54 1017.3
20260508181403 62 62 4.0 7.0 0.00 0.00 0.00 54 1017.3
20260508180904 62 45 3.0 7.0 0.00 0.00 0.00 53 1017.2
20260508180402 62 56 4.0 6.0 0.00 0.00 0.00 53 1017.3
20260508180147 62 34 4.0 6.0 0.00 0.00 0.00 52 1017.2
20260508175404 63 52 0.0 5.0 0.00 0.00 0.00 54 1017.2
20260508174903 63 54 3.0 6.0 0.00 0.00 0.00 52 1017.2
20260508174402 63 56 4.0 6.0 0.00 0.00 0.00 52 1017.1
20260508173906 63 61 2.0 6.0 0.00 0.00 0.00 52 1017.1
20260508173402 63 82 4.0 7.0 0.00 0.00 0.00 52 1017.0
20260508172902 63 59 3.0 9.0 0.00 0.00 0.00 52 1017.0
20260508172402 63 56 2.0 9.0 0.00 0.00 0.00 52 1017.0
20260508171902 63 79 5.0 7.0 0.00 0.00 0.00 53 1017.0
20260508171402 63 96 4.0 9.0 0.00 0.00 0.00 51 1016.8
20260508171139 63 71 3.0 9.0 0.00 0.00 0.00 51 1016.8
20260508170403 64 68 5.0 9.0 0.00 0.00 0.00 51 1016.9
20260508165903 64 55 4.0 10.0 0.00 0.00 0.00 51 1016.8
20260508165713 64 75 4.0 10.0 0.00 0.00 0.00 51 1016.7
20260508164901 64 51 2.0 6.0 0.00 0.00 0.00 50 1016.6
20260508164402 64 52 2.0 11.0 0.00 0.00 0.00 51 1016.5
20260508164153 64 32 5.0 11.0 0.00 0.00 0.00 51 1016.6
20260508163401 64 80 5.0 11.0 0.00 0.00 0.00 49 1016.6
20260508162904 64 83 6.0 11.0 0.00 0.00 0.00 48 1016.5
20260508162402 64 54 6.0 11.0 0.00 0.00 0.00 50 1016.4
20260508161902 64 41 5.0 7.0 0.00 0.00 0.00 49 1016.5
20260508161403 64 31 4.0 10.0 0.00 0.00 0.00 48 1016.6
20260508160903 64 58 4.0 12.0 0.00 0.00 0.00 48 1016.7
20260508160715 65 65 5.0 12.0 0.00 0.00 0.00 48 1016.7
20260508155904 65 34 6.0 11.0 0.00 0.00 0.00 49 1016.6
20260508155410 65 35 5.0 11.0 0.00 0.00 0.00 50 1016.7
20260508154902 65 37 4.0 9.0 0.00 0.00 0.00 47 1016.6
20260508154657 65 25 3.0 9.0 0.00 0.00 0.00 48 1016.6
20260508153901 65 55 5.0 11.0 0.00 0.00 0.00 49 1016.6
20260508153403 65 44 6.0 11.0 0.00 0.00 0.00 49 1016.6
20260508152902 64 58 6.0 13.0 0.00 0.00 0.00 50 1016.7
20260508152403 64 30 7.0 13.0 0.00 0.00 0.00 49 1016.6
20260508151903 65 51 5.0 10.0 0.00 0.00 0.00 50 1016.8
20260508151651 65 49 5.0 10.0 0.00 0.00 0.00 49 1016.8
20260508150902 65 66 4.0 10.0 0.00 0.00 0.00 48 1016.8
20260508150417 65 48 3.0 11.0 0.00 0.00 0.00 47 1016.9
20260508145903 65 23 5.0 11.0 0.00 0.00 0.00 47 1016.8
20260508145402 65 58 5.0 10.0 0.00 0.00 0.00 48 1016.8
20260508144902 65 38 5.0 11.0 0.00 0.00 0.00 47 1016.8
20260508144402 66 54 6.0 11.0 0.00 0.00 0.00 49 1016.8
20260508143902 67 38 6.0 12.0 0.00 0.00 0.00 47 1016.8
20260508143717 68 42 7.0 12.0 0.00 0.00 0.00 46 1016.9
20260508142904 68 27 3.0 10.0 0.00 0.00 0.00 46 1016.9
20260508142424 67 62 5.0 10.0 0.00 0.00 0.00 48 1017.0
20260508141903 66 63 5.0 13.0 0.00 0.00 0.00 52 1017.0
20260508141402 65 76 6.0 13.0 0.00 0.00 0.00 50 1017.0
20260508140902 64 61 4.0 11.0 0.00 0.00 0.00 52 1017.1
20260508140402 64 47 7.0 11.0 0.00 0.00 0.00 50 1017.1
20260508135902 64 89 5.0 9.0 0.00 0.00 0.00 51 1017.2
20260508135402 65 73 4.0 10.0 0.00 0.00 0.00 51 1017.2
20260508134902 66 27 5.0 10.0 0.00 0.00 0.00 50 1017.2
20260508134403 64 92 5.0 11.0 0.00 0.00 0.00 52 1017.2
20260508133901 64 37 6.0 11.0 0.00 0.00 0.00 52 1017.2
20260508133709 64 123 4.0 9.0 0.00 0.00 0.00 52 1017.4
20260508132910 64 51 6.0 10.0 0.00 0.00 0.00 51 1017.3
20260508132402 64 62 5.0 10.0 0.00 0.00 0.00 50 1017.4
20260508131902 64 54 5.0 10.0 0.00 0.00 0.00 50 1017.3
20260508131402 64 68 6.0 12.0 0.00 0.00 0.00 50 1017.5
20260508130902 64 49 7.0 12.0 0.00 0.00 0.00 53 1017.4
20260508130402 63 90 6.0 10.0 0.00 0.00 0.00 53 1017.4
20260508125902 63 52 3.0 10.0 0.00 0.00 0.00 51 1017.3
20260508125653 63 61 4.0 9.0 0.00 0.00 0.00 53 1017.4
20260508124902 63 72 5.0 10.0 0.00 0.00 0.00 54 1017.4
20260508124417 63 42 5.0 10.0 0.00 0.00 0.00 53 1017.4
20260508123902 64 54 5.0 11.0 0.00 0.00 0.00 53 1017.4
20260508123402 64 34 6.0 11.0 0.00 0.00 0.00 52 1017.4
20260508122903 64 28 5.0 9.0 0.00 0.00 0.00 57 1017.4
20260508122402 64 28 4.0 9.0 0.00 0.00 0.00 53 1017.4
20260508121918 64 24 3.0 9.0 0.00 0.00 0.00 53 1017.4
20260508121401 64 41 4.0 9.0 0.00 0.00 0.00 55 1017.3
20260508120919 64 65 3.0 9.0 0.00 0.00 0.00 51 1017.4
20260508120402 63 106 4.0 9.0 0.00 0.00 0.00 53 1017.4
20260508115902 63 62 1.0 6.0 0.00 0.00 0.00 52 1017.3
20260508115401 63 24 3.0 6.0 0.00 0.00 0.00 55 1017.3
20260508115150 64 72 1.0 6.0 0.00 0.00 0.00 52 1017.3
20260508114651 64 54 1.0 5.0 0.00 0.00 0.00 52 1017.3
20260508114153 64 35 0.0 6.0 0.00 0.00 0.00 52 1017.4
20260508113403 64 106 3.0 9.0 0.00 0.00 0.00 50 1017.4
20260508112903 64 87 3.0 9.0 0.00 0.00 0.00 53 1017.4
20260508112404 64 62 4.0 9.0 0.00 0.00 0.00 52 1017.4
20260508111903 64 104 6.0 9.0 0.00 0.00 0.00 54 1017.5
20260508111402 64 148 3.0 6.0 0.00 0.00 0.00 52 1017.5
20260508110901 64 45 1.0 5.0 0.00 0.00 0.00 54 1017.5
20260508110403 64 99 1.0 7.0 0.00 0.00 0.00 52 1017.5
20260508105903 64 124 2.0 7.0 0.00 0.00 0.00 50 1017.4
20260508105432 64 166 4.0 6.0 0.00 0.00 0.00 52 1017.5
20260508104917 63 102 2.0 6.0 0.00 0.00 0.00 60 1017.5
20260508104404 63 38 3.0 6.0 0.00 0.00 0.00 57 1017.6
20260508103906 64 34 3.0 6.0 0.00 0.00 0.00 57 1017.5
20260508103403 63 24 4.0 5.0 0.00 0.00 0.00 58 1017.5
20260508102902 63 28 2.0 5.0 0.00 0.00 0.00 61 1017.5
20260508102655 63 47 2.0 5.0 0.00 0.00 0.00 61 1017.6
20260508101902 63 92 2.0 6.0 0.00 0.00 0.00 59 1017.6
20260508101654 63 73 3.0 6.0 0.00 0.00 0.00 58 1017.5
20260508100902 63 47 1.0 5.0 0.00 0.00 0.00 61 1017.6
20260508100706 62 55 3.0 6.0 0.00 0.00 0.00 63 1017.6
20260508100152 62 65 2.0 6.0 0.00 0.00 0.00 62 1017.6
20260508095403 62 32 1.0 5.0 0.00 0.00 0.00 66 1017.7
20260508094914 62 76 2.0 5.0 0.00 0.00 0.00 66 1017.7
20260508094403 61 37 3.0 4.0 0.00 0.00 0.00 65 1017.7
20260508093902 61 62 2.0 4.0 0.00 0.00 0.00 66 1017.7
20260508093401 61 4 2.0 5.0 0.00 0.00 0.00 68 1017.7
20260508092903 60 42 3.0 5.0 0.00 0.00 0.00 69 1017.6
20260508092402 60 49 3.0 5.0 0.00 0.00 0.00 70 1017.6
20260508091902 59 68 3.0 5.0 0.00 0.00 0.00 71 1017.6
20260508091402 59 49 2.0 4.0 0.00 0.00 0.00 70 1017.7
20260508090941 58 66 2.0 4.0 0.00 0.00 0.00 74 1017.8
20260508090927 59 45 3.0 4.0 0.00 0.00 0.00 70 1017.7
20260508085902 58 38 0.0 3.0 0.00 0.00 0.00 73 1017.7
20260508085403 58 68 0.0 4.0 0.00 0.00 0.00 72 1017.8
20260508084903 58 68 2.0 4.0 0.00 0.00 0.00 73 1017.7
20260508084401 58 113 3.0 4.0 0.00 0.00 0.00 74 1017.8
20260508083901 57 85 0.0 4.0 0.00 0.00 0.00 74 1017.8
20260508083653 57 86 2.0 4.0 0.00 0.00 0.00 75 1017.7
20260508083215 57 89 2.0 3.0 0.00 0.00 0.00 75 1017.8
20260508082547 56 94 0.0 3.0 0.00 0.00 0.00 75 1017.7
20260508082503 56 90 0.0 0.0 0.00 0.00 0.00 75 1017.7
20260508082231 56 97 0.0 1.0 0.00 0.00 0.00 76 1017.6
20260508080903 56 94 2.0 4.0 0.00 0.00 0.00 75 1017.6
20260508080402 56 102 1.0 4.0 0.00 0.00 0.00 76 1017.7
20260508080156 56 104 2.0 4.0 0.00 0.00 0.00 78 1017.6
20260508075403 56 85 0.0 3.0 0.00 0.00 0.00 77 1017.6
20260508075153 55 89 2.0 4.0 0.00 0.00 0.00 78 1017.6
20260508074402 55 89 2.0 4.0 0.00 0.00 0.00 78 1017.5
20260508073901 55 75 2.0 4.0 0.00 0.00 0.00 79 1017.5
20260508073401 55 80 2.0 3.0 0.00 0.00 0.00 79 1017.5
20260508072903 54 58 1.0 3.0 0.00 0.00 0.00 79 1017.5
20260508072403 54 65 0.0 3.0 0.00 0.00 0.00 80 1017.6
20260508071904 54 82 0.0 5.0 0.00 0.00 0.00 80 1017.4
20260508071513 54 75 2.0 4.0 0.00 0.00 0.00 80 1017.4
20260508071445 54 58 2.0 5.0 0.00 0.00 0.00 80 1017.4
20260508070749 53 48 2.0 4.0 0.00 0.00 0.00 81 1017.5
20260508065919 53 47 2.0 4.0 0.00 0.00 0.00 81 1017.4
20260508065406 53 61 3.0 5.0 0.00 0.00 0.00 81 1017.3
20260508064902 53 66 3.0 5.0 0.00 0.00 0.00 81 1017.3
20260508064403 53 66 2.0 5.0 0.00 0.00 0.00 81 1017.2
20260508063902 53 44 3.0 5.0 0.00 0.00 0.00 81 1017.2
20260508063401 53 52 2.0 5.0 0.00 0.00 0.00 82 1017.2
20260508062903 53 82 2.0 4.0 0.00 0.00 0.00 82 1017.2
20260508062405 52 78 2.0 5.0 0.00 0.00 0.00 82 1017.2
20260508061902 52 97 2.0 5.0 0.00 0.00 0.00 82 1017.1
20260508061402 52 86 4.0 5.0 0.00 0.00 0.00 82 1017.1
20260508060902 52 97 0.0 5.0 0.00 0.00 0.00 82 1017.0
20260508060654 52 97 2.0 5.0 0.00 0.00 0.00 82 1017.1
20260508055903 52 97 2.0 5.0 0.00 0.00 0.00 82 1017.0
20260508055415 52 100 2.0 5.0 0.00 0.00 0.00 82 1016.9
20260508054902 51 59 3.0 5.0 0.00 0.00 0.00 82 1017.0
20260508054417 51 93 2.0 5.0 0.00 0.00 0.00 82 1017.0
20260508053905 51 86 2.0 4.0 0.00 0.00 0.00 83 1017.0
20260508053406 51 75 3.0 4.0 0.00 0.00 0.00 83 1017.0
20260508052905 51 76 2.0 3.0 0.00 0.00 0.00 83 1016.9
20260508052403 51 96 1.0 3.0 0.00 0.00 0.00 83 1016.9
20260508051904 51 92 0.0 3.0 0.00 0.00 0.00 83 1016.9
20260508051403 51 90 0.0 5.0 0.00 0.00 0.00 83 1016.8
20260508050903 51 89 1.0 5.0 0.00 0.00 0.00 83 1016.8
20260508050403 51 71 2.0 4.0 0.00 0.00 0.00 83 1016.8
20260508045903 51 86 1.0 3.0 0.00 0.00 0.00 83 1016.8
20260508045404 51 86 0.0 4.0 0.00 0.00 0.00 83 1016.9
20260508045153 51 87 3.0 4.0 0.00 0.00 0.00 83 1016.7
20260508044402 51 83 3.0 4.0 0.00 0.00 0.00 83 1016.7
20260508043902 50 69 0.0 0.0 0.00 0.00 0.00 83 1016.7
20260508043647 50 69 0.0 3.0 0.00 0.00 0.00 83 1016.6
20260508042902 50 69 0.0 3.0 0.00 0.00 0.00 83 1016.7
20260508042402 50 89 1.0 3.0 0.00 0.00 0.00 83 1016.7
20260508041912 50 94 1.0 4.0 0.00 0.00 0.00 84 1016.6
20260508041402 50 96 2.0 4.0 0.00 0.00 0.00 84 1016.6
20260508040901 50 92 2.0 4.0 0.00 0.00 0.00 84 1016.6
20260508040401 50 71 0.0 0.0 0.00 0.00 0.00 84 1016.6
20260508040146 50 71 0.0 0.0 0.00 0.00 0.00 84 1016.6
20260508035401 50 72 0.0 3.0 0.00 0.00 0.00 84 1016.6
20260508035138 50 71 0.0 3.0 0.00 0.00 0.00 84 1016.6
20260508034402 50 69 0.0 2.0 0.00 0.00 0.00 85 1016.5
20260508033901 50 63 0.0 1.0 0.00 0.00 0.00 85 1016.5
20260508033413 50 65 0.0 0.0 0.00 0.00 0.00 85 1016.5
20260508032904 50 65 0.0 0.0 0.00 0.00 0.00 86 1016.6
20260508032402 50 65 0.0 0.0 0.00 0.00 0.00 86 1016.5
20260508032154 50 65 0.0 0.0 0.00 0.00 0.00 85 1016.5
20260508031402 50 65 0.0 0.0 0.00 0.00 0.00 85 1016.5
20260508030902 50 65 0.0 0.0 0.00 0.00 0.00 86 1016.4
20260508030647 50 61 0.0 0.0 0.00 0.00 0.00 86 1016.4
20260508025904 50 61 0.0 0.0 0.00 0.00 0.00 85 1016.4
20260508025401 50 61 0.0 0.0 0.00 0.00 0.00 85 1016.5
20260508024902 50 61 0.0 0.0 0.00 0.00 0.00 85 1016.5
20260508024403 50 61 0.0 0.0 0.00 0.00 0.00 85 1016.5
20260508023901 50 61 0.0 0.0 0.00 0.00 0.00 85 1016.5
20260508023402 50 61 0.0 0.0 0.00 0.00 0.00 85 1016.4
20260508022903 50 61 0.0 0.0 0.00 0.00 0.00 85 1016.6
20260508022403 50 61 0.0 0.0 0.00 0.00 0.00 85 1016.5
20260508021902 50 61 0.0 0.0 0.00 0.00 0.00 85 1016.6